Content
SEND FEEDBACK

Daily
Averages
Monthly
Summary
United States of America

TROUT LAKE, COLORADO


Home > North America > United States > Colorado
Elevation: 9819 feet     Latitude: 37 50N     Longitude: 107 53W

WEATHER
 
SELECT A DAY
Number of Records: 308,767;   Date Range: 1/1/95 - 12/16/14
 
SHARE

PRINT THIS DATA

[ ← Previous Day ]
WEATHER ALMANAC - FEBRUARY 13, 2013
[ Next Day → ]
[ °C ]   °F
Weather ElementAverageHighLow
Temperature20.6 °F32 °F (11:55 am)8.6 °F (12:55 am)
Dewpoint10.6 °F15.8 °F (7:55 pm)3.2 °F (12:55 am)
Humidity66.9 %86 % (11:55 pm)44 % (11:55 am)
Barometer30.11 in30.14 in (9:35 am)30.09 in (3:35 am)
Wind Speed4.3 mph11.5 mph (1:35 pm)
Wind Gust16.1 mph (2:15 pm)
Weather ElementAverage
Visibility10 mi
Wind DirectionESE (117.6 °)

Weather ElementTotal
Precipitation0.15 in
Heating Degree Days44.7 (Base 65)
Averaged from 70 records on February 13, 2013
WEATHER CONDITIONS BREAKOUT
WIND DIRECTION BREAKOUT
WEATHER BY HOUR - FEBRUARY 13, 2013
[ °C ]   °F
Local TimeTemperatureDewpointHumidityBarometerVisibilityWind DirectionWind SpeedGust SpeedPrecipitationEventsConditions
12:35 AM10.4 °F5.0 °F79 %30.12 in10.0 miCalmClear
12:55 AM8.6 °F3.2 °F79 %30.12 in10.0 miCalmClear
1:15 AM8.6 °F3.2 °F79 %30.12 in10.0 miSE (130°)5.8 mphScattered Clouds
1:35 AM8.6 °F3.2 °F79 %30.12 in10.0 miESE (120°)4.6 mphScattered Clouds
1:55 AM10.4 °F3.2 °F73 %30.12 in10.0 miSE (140°)5.8 mphMostly Cloudy
2:15 AM10.4 °F5.0 °F79 %30.12 in10.0 miEast (100°)4.6 mphMostly Cloudy
2:35 AM10.4 °F5.0 °F79 %30.12 in10.0 miESE (120°)5.8 mphMostly Cloudy
2:55 AM10.4 °F5.0 °F79 %30.11 in10.0 miSE (130°)6.9 mphMostly Cloudy
3:15 AM10.4 °F5.0 °F79 %30.10 in10.0 miESE (110°)5.8 mphScattered Clouds
3:35 AM10.4 °F5.0 °F79 %30.09 in10.0 miEast (80°)3.5 mphClear
3:55 AM10.4 °F5.0 °F79 %30.09 in10.0 miESE (120°)5.8 mphClear
4:15 AM12.2 °F5.0 °F73 %30.09 in10.0 miESE (110°)4.6 mphClear
4:35 AM10.4 °F5.0 °F79 %30.09 in10.0 miSE (140°)3.5 mphClear
5:15 AM10.4 °F5.0 °F79 %30.10 in10.0 miESE (110°)5.8 mphClear
5:35 AM10.4 °F5.0 °F79 %30.10 in10.0 miESE (110°)3.5 mphClear
5:55 AM10.4 °F5.0 °F79 %30.10 in10.0 miCalmClear
6:15 AM10.4 °F5.0 °F79 %30.10 in10.0 miSE (130°)5.8 mphClear
6:35 AM10.4 °F5.0 °F79 %30.10 in10.0 miCalmClear
6:55 AM10.4 °F6.8 °F85 %30.11 in10.0 miCalmClear
7:15 AM14.0 °F8.6 °F79 %30.11 in10.0 miESE (120°)5.8 mphClear
7:35 AM10.4 °F6.8 °F85 %30.12 in10.0 miESE (120°)5.8 mphClear
7:55 AM14.0 °F8.6 °F79 %30.12 in10.0 miESE (120°)5.8 mphClear
8:15 AM15.8 °F8.6 °F73 %30.11 in10.0 miESE (120°)5.8 mphClear
8:35 AM17.6 °F10.4 °F73 %30.12 in10.0 miCalmClear
8:55 AM17.6 °F10.4 °F73 %30.12 in10.0 miSSE (160°)3.5 mphClear
9:15 AM17.6 °F10.4 °F73 %30.13 in10.0 miESE (110°)3.5 mphClear
9:35 AM19.4 °F10.4 °F68 %30.14 in10.0 miCalmClear
9:55 AM21.2 °F10.4 °F63 %30.14 in10.0 miCalmClear
10:15 AM23.0 °F12.2 °F63 %30.14 in10.0 miCalmClear
10:35 AM23.0 °F12.2 °F63 %30.14 in10.0 miCalmClear
10:55 AM26.6 °F12.2 °F55 %30.14 in10.0 miCalmClear
11:15 AM28.4 °F12.2 °F51 %30.14 in10.0 miCalmClear
11:35 AM30.2 °F12.2 °F47 %30.14 in10.0 miCalmClear
11:55 AM32.0 °F12.2 °F44 %30.13 in10.0 miWest (260°)4.6 mphClear
12:15 PM32.0 °F14.0 °F48 %30.12 in10.0 miWest (260°)6.9 mph0.02 inClear
12:35 PM32.0 °F14.0 °F48 %30.11 in10.0 miWSW (240°)4.6 mph0.03 inClear
12:55 PM32.0 °F14.0 °F48 %30.10 in10.0 miSW (230°)6.9 mph0.04 inClear
1:15 PM32.0 °F14.0 °F48 %30.10 in10.0 miSW (230°)8.1 mph0.02 inClear
1:35 PM32.0 °F12.2 °F44 %30.10 in10.0 miWest (260°)11.5 mph0.02 inClear
1:55 PM32.0 °F14.0 °F48 %30.09 in10.0 miWest (260°)9.2 mph0.02 inClear
2:15 PM32.0 °F14.0 °F48 %30.09 in10.0 miWest (260°)10.4 mph16.1 mphClear
2:35 PM30.2 °F14.0 °F51 %30.09 in10.0 miWSW (250°)9.2 mphClear
2:55 PM30.2 °F14.0 °F51 %30.10 in10.0 miWest (260°)9.2 mphClear
3:15 PM32.0 °F14.0 °F48 %30.10 in10.0 miSouth (180°)4.6 mphClear
3:35 PM32.0 °F14.0 °F48 %30.10 in10.0 miWSW (240°)5.8 mphClear
3:55 PM30.2 °F14.0 °F51 %30.10 in10.0 miSouth (190°)4.6 mphClear
4:15 PM32.0 °F14.0 °F48 %30.10 in10.0 miSouth (190°)6.9 mphClear
4:35 PM30.2 °F14.0 °F51 %30.10 in10.0 miWNW (290°)6.9 mphClear
4:55 PM30.2 °F14.0 °F51 %30.10 in10.0 miWest (260°)8.1 mphClear
5:15 PM30.2 °F14.0 °F51 %30.10 in10.0 miSSW (200°)5.8 mphClear
5:35 PM28.4 °F12.2 °F51 %30.10 in10.0 miSSW (210°)3.5 mphClear
5:55 PM28.4 °F14.0 °F55 %30.10 in10.0 miCalmClear
6:15 PM26.6 °F14.0 °F59 %30.10 in10.0 miCalmClear
6:35 PM26.6 °F14.0 °F59 %30.11 in10.0 miCalmClear
6:55 PM24.8 °F14.0 °F64 %30.11 in10.0 miCalmClear
7:15 PM24.8 °F14.0 °F64 %30.12 in10.0 miCalmClear
7:35 PM23.0 °F14.0 °F68 %30.12 in10.0 miESE (120°)8.1 mphClear
7:55 PM23.0 °F15.8 °F74 %30.12 in10.0 miESE (120°)4.6 mphClear
8:15 PM21.2 °F14.0 °F74 %30.11 in10.0 miESE (110°)3.5 mphClear
8:35 PM21.2 °F14.0 °F74 %30.12 in10.0 miESE (120°)3.5 mphClear
8:55 PM21.2 °F14.0 °F74 %30.12 in10.0 miSE (130°)4.6 mphClear
9:15 PM21.2 °F14.0 °F74 %30.12 in10.0 miCalmClear
9:35 PM19.4 °F12.2 °F74 %30.12 in10.0 miSE (130°)5.8 mphClear
9:55 PM19.4 °F14.0 °F80 %30.11 in10.0 miESE (120°)6.9 mphClear
10:15 PM19.4 °F12.2 °F74 %30.12 in10.0 miSE (130°)5.8 mphClear
10:35 PM17.6 °F12.2 °F79 %30.12 in10.0 miEast (80°)3.5 mphClear
10:55 PM17.6 °F12.2 °F79 %30.12 in10.0 miSE (130°)5.8 mphClear
11:15 PM17.6 °F12.2 °F79 %30.11 in10.0 miSE (130°)6.9 mphClear
11:35 PM17.6 °F12.2 °F79 %30.11 in10.0 miSE (130°)5.8 mphClear
11:55 PM17.6 °F14.0 °F86 %30.12 in10.0 miESE (110°)4.6 mphClear
Hourly data recorded from KTEX, located miles away from Trout Lake, Colorado







STORIES FROM OUR PARTNERS